Location: Squirrel Cove
(50.1074°N, 124.9139°W)
Time: 03:26:56
(UTC-08:00)

ISS - Visible Passes

Search period start: 29 November 2022 00:00
Search period end: 09 December 2022 00:00
Orbit: 411 x 420 km, 51.6° (Epoch: 29 November)

Date Brightness Start Highest point End Pass type
(mag) Time Alt. Az. Time Alt. Az. Time Alt. Az.
29 Nov -3.9 18:09:04 10° WNW 18:12:25 74° N 18:13:06 52° ENE visible
29 Nov -0.2 19:45:53 10° W 19:45:59 11° W 19:45:59 11° W visible
30 Nov -3.7 17:20:19 10° W 17:23:39 66° N 17:26:25 14° E visible
30 Nov -2.2 18:57:06 10° WNW 18:59:19 36° W 18:59:19 36° W visible
01 Dec -3.8 18:08:19 10° WNW 18:11:40 77° SSW 18:12:41 41° ESE visible
01 Dec -0.2 19:45:30 10° W 19:45:35 10° W 19:45:35 10° W visible
02 Dec -3.8 17:19:32 10° WNW 17:22:53 85° NNE 17:26:09 10° ESE visible
02 Dec -1.9 18:56:27 10° W 18:59:03 28° SW 18:59:03 28° SW visible
03 Dec -2.7 18:07:31 10° W 18:10:41 42° SSW 18:12:39 20° SE visible
04 Dec -3.3 17:18:37 10° WNW 17:21:55 60° SSW 17:25:11 10° ESE visible
04 Dec -1.0 18:56:13 10° WSW 18:58:06 14° SW 18:59:21 12° SSW visible
05 Dec -1.3 18:06:49 10° W 18:09:26 21° SW 18:12:03 10° SSE visible
06 Dec -1.8 17:17:41 10° W 17:20:42 31° SSW 17:23:41 10° SSE visible
07 Dec -0.1 18:07:39 10° SW 18:07:55 10° SW 18:08:11 10° SW visible
08 Dec -0.6 17:17:06 10° W 17:19:12 16° SW 17:21:18 10° S visible
